KBTL-WX Weather Reports


time (UTC)temp
C
wind
direction
speed
KPH
gust
KPH
rain 1hr
cm
rain 24hr
cm
rain mn
cm
humidity
%
barometer
mb
20260509043029 7 172 9.7 0.0 0.00 0.00 0.00 45 973.9
20260509041513 8 174 9.7 0.0 0.00 0.00 0.00 45 974.0
20260509040041 8 169 8.0 0.0 0.00 0.00 0.00 45 974.0
20260509034514 9 174 9.7 0.0 0.00 0.00 0.00 34 974.9
20260509033028 9 174 9.7 0.0 0.00 0.00 0.00 28 975.7
20260509031513 9 166 9.7 0.0 0.00 0.00 0.00 28 975.7
20260509030040 10 166 8.0 0.0 0.00 0.00 0.00 28 975.7
20260509024513 10 177 6.4 0.0 0.00 0.00 0.00 28 975.3
20260509023031 11 180 6.4 0.0 0.00 0.00 0.00 33 975.7
20260509021513 11 215 6.4 0.0 0.00 0.00 0.00 33 975.7
20260509020038 11 234 4.8 0.0 0.00 0.00 0.00 33 975.7
20260509014513 11 248 6.4 0.0 0.00 0.00 0.00 35 975.0
20260509013027 11 254 4.8 0.0 0.00 0.00 0.00 35 975.0
20260509011513 11 298 6.4 0.0 0.00 0.00 0.00 35 974.9
20260509010035 12 305 6.4 0.0 0.00 0.00 0.00 35 974.9
20260509004512 12 305 8.0 0.0 0.00 0.00 0.00 28 974.6
20260509003031 13 289 8.0 0.0 0.00 0.00 0.00 27 976.0
20260509001512 13 291 8.0 0.0 0.00 0.00 0.00 27 976.0
20260509000039 15 292 11.3 0.0 0.00 0.00 0.00 27 976.0
20260508234512 15 288 12.9 0.0 0.00 0.00 0.00 31 975.2
20260508233031 16 284 14.5 0.0 0.00 0.00 0.00 27 975.8
20260508231514 16 280 16.1 0.0 0.00 0.00 0.00 27 975.8
20260508230036 16 276 16.1 0.0 0.00 0.00 0.00 27 975.8
20260508224514 16 272 16.1 0.0 0.00 0.00 0.00 28 975.6
20260508223032 16 283 17.7 0.0 0.00 0.00 0.00 27 976.5
20260508221515 16 278 16.1 0.0 0.00 0.00 0.00 27 976.5
20260508220034 17 266 16.1 0.0 0.00 0.00 0.00 27 976.5
20260508214515 17 263 16.1 0.0 0.00 0.00 0.00 26 976.9
20260508213032 17 259 16.1 0.0 0.00 0.00 0.00 26 976.5
20260508211514 17 261 16.1 0.0 0.00 0.00 0.00 26 976.5
20260508210039 17 258 16.1 0.0 0.00 0.00 0.00 26 976.5
20260508204515 17 253 16.1 0.0 0.00 0.00 0.00 33 976.9
20260508203032 17 254 17.7 0.0 0.00 0.00 0.00 32 976.6
20260508201514 17 253 19.3 0.0 0.00 0.00 0.00 32 976.6
20260508200035 17 249 16.1 0.0 0.00 0.00 0.00 28 976.2
20260508194515 17 248 16.1 0.0 0.00 0.00 0.00 30 977.0
20260508193028 17 249 16.1 0.0 0.00 0.00 0.00 30 977.0
20260508191514 17 252 16.1 0.0 0.00 0.00 0.00 30 976.9
20260508190036 17 254 16.1 0.0 0.00 0.00 0.00 30 976.9
20260508184514 16 254 16.1 0.0 0.00 0.00 0.00 32 977.7
20260508183033 16 253 17.7 0.0 0.00 0.00 0.00 35 977.2
20260508181514 16 248 16.1 0.0 0.00 0.00 0.00 35 977.3
20260508180038 16 245 16.1 0.0 0.00 0.00 0.00 35 977.3
20260508174514 16 240 14.5 0.0 0.00 0.00 0.00 33 978.2
20260508173033 16 239 16.1 0.0 0.00 0.00 0.00 33 978.3
20260508171514 16 237 16.1 0.0 0.00 0.00 0.00 33 978.3
20260508170038 16 239 16.1 0.0 0.00 0.00 0.00 32 978.3
20260508164514 15 240 14.5 0.0 0.00 0.00 0.00 35 977.9
20260508163032 15 243 12.9 0.0 0.00 0.00 0.00 35 978.5
20260508161514 15 246 11.3 0.0 0.00 0.00 0.00 35 978.5
20260508160039 14 247 9.7 0.0 0.00 0.00 0.00 35 978.5
20260508154515 13 241 8.0 0.0 0.00 0.00 0.00 42 979.2
20260508153034 13 233 6.4 0.0 0.00 0.00 0.00 41 978.6
20260508151514 13 223 4.8 0.0 0.00 0.00 0.00 41 978.6
20260508150038 12 215 6.4 0.0 0.00 0.00 0.00 41 978.6
20260508144515 12 208 4.8 0.0 0.00 0.00 0.00 55 978.6
20260508143030 11 216 4.8 0.0 0.00 0.00 0.00 49 978.8
20260508141515 11 214 3.2 0.0 0.00 0.00 0.00 49 978.8
20260508140040 11 220 1.6 0.0 0.00 0.00 0.00 58 978.6
20260508134514 10 212 3.2 0.0 0.00 0.00 0.00 72 978.6
20260508133029 9 175 3.2 0.0 0.00 0.00 0.00 72 978.5
20260508131515 8 180 3.2 0.0 0.00 0.00 0.00 72 978.5
20260508130041 7 193 3.2 0.0 0.00 0.00 0.00 72 978.5
20260508124515 6 201 1.6 0.0 0.00 0.00 0.00 90 977.4
20260508123031 6 184 8.0 0.0 0.00 0.00 0.00 87 978.4
20260508121514 5 178 8.0 0.0 0.00 0.00 0.00 87 978.4
20260508120044 5 171 6.4 0.0 0.00 0.00 0.00 87 978.4
20260508114514 3 173 4.8 0.0 0.00 0.00 0.00 89 977.4
20260508113035 3 172 4.8 0.0 0.00 0.00 0.00 89 978.1
20260508111514 2 166 4.8 0.0 0.00 0.00 0.00 89 978.1
20260508110035 2 172 4.8 0.0 0.00 0.00 0.00 89 978.1
20260508104517 2 174 6.4 0.0 0.00 0.00 0.00 85 977.2
20260508103033 2 171 6.4 0.0 0.00 0.00 0.00 89 978.4
20260508101517 2 175 6.4 0.0 0.00 0.00 0.00 89 978.4
20260508100034 2 170 6.4 0.0 0.00 0.00 0.00 89 978.4
20260508094516 2 165 8.0 0.0 0.00 0.00 0.00 83 977.6
20260508093029 2 165 8.0 0.0 0.00 0.00 0.00 81 978.2
20260508091517 3 170 4.8 0.0 0.00 0.00 0.00 81 978.2
20260508090038 3 167 3.2 0.0 0.00 0.00 0.00 81 978.2
20260508084516 3 167 3.2 0.0 0.00 0.00 0.00 84 977.6
20260508083034 3 229 6.4 0.0 0.00 0.00 0.00 83 977.7
20260508081516 3 223 6.4 0.0 0.00 0.00 0.00 83 977.7
20260508080040 3 223 6.4 0.0 0.00 0.00 0.00 83 977.7
20260508074517 3 227 4.8 0.0 0.00 0.00 0.00 84 978.5
20260508073034 3 225 4.8 0.0 0.00 0.00 0.00 84 978.5
20260508071516 3 212 3.2 0.0 0.00 0.00 0.00 84 978.6
20260508070041 3 243 1.6 0.0 0.00 0.00 0.00 84 978.6
20260508064515 4 292 1.6 0.0 0.00 0.00 0.00 83 978.0
20260508063029 4 169 1.6 0.0 0.00 0.00 0.00 82 978.5
20260508061516 4 153 0.0 0.0 0.00 0.00 0.00 82 978.5
20260508060044 5 143 1.6 0.0 0.00 0.00 0.00 82 978.5
20260508054515 5 153 0.0 0.0 0.00 0.00 0.00 77 979.2
20260508053035 5 158 1.6 0.0 0.00 0.00 0.00 83 979.2
20260508051515 5 95 3.2 0.0 0.00 0.00 0.00 83 979.1
20260508050041 5 70 3.2 0.0 0.00 0.00 0.00 83 979.1
20260508044514 5 57 4.8 0.0 0.00 0.00 0.00 79 978.9